Regional Weather Roundup
Issued by NWS

Home | Current Version | Previous Version | Text Only | Print | Product List | Glossary Off
Versions: 1 2 3 4 5 6 7 8 9 10 11 12 13 14 15 16 17 18 19 20 21 22 23 24 25 26 27 28 29 30 31 32 33 34 35 36 37 38 39 40 41 42 43 44 45 46 47 48 49 50

000
ASUS43 KTOP 270908
RWRKS

WEATHER ROUNDUP FOR KANSAS
NATIONAL WEATHER SERVICE GOODLAND KS
400 AM CDT MON APR 27 2015

NOTE:  "FAIR" INDICATES FEW OR NO CLOUDS BELOW 12,000 FEET WITH NO
SIGNIFICANT WEATHER AND/OR OBSTRUCTIONS TO VISIBILITY.

KSZ001>006-013>018-027>032-041>047-271000-
NORTHWEST KANSAS

CITY           SKY/WX    TMP DP  RH WIND       PRES   REMARKS
GOODLAND       CLOUDY    44  43  96 NE10      30.08R
HAYS           CLOUDY    46  36  66 NE12      30.07R
HILL CITY      MOCLDY    45  41  86 NE10G22   30.08R
RUSSELL        CLOUDY    43  40  89 NE7       30.05R
$$

KSZ061>065-074>080-084>089-271000-
SOUTHWEST KANSAS

CITY           SKY/WX    TMP DP  RH WIND       PRES   REMARKS
DODGE CITY     CLOUDY    47  43  86 NE17      30.00R
ELKHART          N/A     43  39  86 NE10        N/A
GARDEN CITY    CLOUDY    45  43  93 NE16      30.00R
GREAT BEND     CLOUDY    46  39  76 NE8       30.05R
LIBERAL        CLOUDY    46  43  87 NE15      29.96F
$$

KSZ066>073-081>083-090>101-271000-
SOUTHEAST KANSAS

CITY           SKY/WX    TMP DP  RH WIND       PRES   REMARKS
CHANUTE        CLOUDY    51  38  60 E6        30.00R
COFFEYVILLE    CLOUDY    53  41  63 E9        29.97R
HUTCHINSON     CLOUDY    49  41  74 N7        30.03R
MEDICINE LODGE   N/A     50  45  83 NE15      29.94S
NEWTON         CLOUDY    46  36  66 NE7       30.04R
PARSONS        CLOUDY    52  41  66 VRB5      30.00R
WICHITA INTL   CLOUDY    53  39  59 NE10      29.99S
WICHITA JABRA  CLOUDY    50  39  66 NE8       30.00R
WICHITA MCCONL CLOUDY    52  38  59 NE12      29.99S
WINFIELD       LGT RAIN  50  45  83 NE14G23   29.95F
$$

KSZ007>012-019>026-033>040-048>060-102>105-271000-
NORTHEAST KANSAS

CITY           SKY/WX    TMP DP  RH WIND       PRES   REMARKS
CONCORDIA      MOCLDY    43  34  70 NE3       30.08R
EMPORIA        CLOUDY    48  37  65 E10       30.01R
LAWRENCE       CLOUDY    46  37  71 NE8       30.06R
MANHATTAN      CLOUDY    44  36  73 NE8       30.06R
MARYSVILLE     PTCLDY    36  34  93 N3        30.09R
OLATHE IND     CLOUDY    47  36  65 NE9       30.04S
OLATHE EXE     CLOUDY    46  36  68 NE7       30.03S
SALINA         CLOUDY    48  38  68 NE7       30.07R
TOPEKA BILLARD CLOUDY    44  38  79 N6        30.06R
TOPEKA FORBES  CLOUDY    47  38  71 NE7       30.04R
$$


USA.gov is the U.S. government's official web portal to all federal, state and local government web resources and services.